Location: Caltech
(34.1382°N, 118.1253°W)
Time: 08:13:33
(UTC-07:00)

Cosmos 1943 Rocket - Visible Passes

Search period start: 24 May 2015 00:00
Search period end: 03 June 2015 00:00
Orbit: 811 x 846 km, 71.0° (Epoch: 23 May)

Date Brightness Start Highest point End Pass type
(mag) Time Alt. Az. Time Alt. Az. Time Alt. Az.
24 May 3.4 03:05:37 10° N 03:10:54 40° ENE 03:16:10 10° SE visible
24 May 3.3 04:50:02 10° NW 04:54:25 23° WSW 04:58:36 10° SSW visible
25 May 3.6 02:46:38 10° N 02:51:44 35° ENE 02:56:52 10° SE visible
25 May 3.1 04:30:42 10° NW 04:35:22 26° WSW 04:38:51 14° SSW visible
26 May 3.8 02:27:39 10° N 02:32:35 31° ENE 02:36:49 13° ESE visible
26 May 2.9 04:11:24 10° NW 04:16:18 30° WSW 04:18:13 24° SW visible
27 May 4.0 02:08:42 10° N 02:13:24 27° ENE 02:16:39 17° ESE visible
27 May 2.7 03:52:08 10° NW 03:57:14 35° WSW 03:58:05 33° WSW visible
28 May 4.1 01:49:48 10° N 01:54:13 24° ENE 01:56:48 18° E visible
28 May 2.6 03:32:54 10° NW 03:38:10 41° WSW 03:38:14 41° WSW visible
29 May 4.2 01:30:55 10° N 01:35:01 21° ENE 01:37:09 17° E visible
29 May 2.5 03:13:42 10° NNW 03:18:37 46° W 03:18:37 46° W visible
30 May 4.3 01:12:05 10° NNE 01:15:49 18° NE 01:17:40 16° E visible
30 May 2.5 02:54:31 10° NNW 02:59:08 49° WNW 02:59:08 49° WNW visible
31 May 4.4 00:53:18 10° NNE 00:56:36 16° NE 00:58:18 15° ENE visible
31 May 2.6 02:35:22 10° NNW 02:39:46 51° WNW 02:39:46 51° WNW visible
01 Jun 4.5 00:34:37 10° NNE 00:37:22 14° NE 00:39:02 13° ENE visible
01 Jun 2.7 02:16:13 10° NNW 02:20:30 52° NW 02:20:30 52° NW visible
02 Jun 4.6 00:16:06 10° NNE 00:18:08 12° NE 00:19:50 11° ENE visible
02 Jun 2.7 01:57:06 10° NNW 02:01:19 52° NNW 02:01:19 52° NNW visible
